Location: Newark
(7.0858°N, 171.3717°E)
Time: 23:30:24
(UTC+00:00)

Vanguard 2 - Pass Details

Date: 30 November 2020
Orbit: 553 x 2937 km, 32.9° (Epoch: 20 January)

Event Time Altitude Azimuth Distance (km) Brightness Sun altitude
Rises 04:58:00 0° 309° (NW) 2,988 10.9 16.8°
Reaches altitude 10° 04:59:59 10° 311° (NW) 2,222 10.3 16.4°
Maximum altitude 05:05:04 71° 36° (NE) 1,009 8.2 15.2°
Drops below altitude 10° 05:13:24 10° 119° (ESE) 3,554 10.6 13.4°
Sets 05:17:20 0° 121° (ESE) 4,944 11.3 12.5°
